Location: Colonia Mina de C?rbuni
(46.1667°N, 22.7167°E)
Time: 16:58:58
(UTC+00:00)

deb Explorer IX - All Passes

Search period start: 13 April 2024 00:00
Search period end: 23 April 2024 00:00
Orbit: 513 x 905 km, 38.7° (Epoch: 12 April)

Date Brightness Start Highest point End Pass type
(mag) Time Alt. Az. Time Alt. Az. Time Alt. Az.
13 Apr - 12:08:02 10° SSW 12:12:54 24° SSE 12:17:35 10° ESE daylight
13 Apr - 13:51:11 10° WSW 13:56:49 39° S 14:02:04 10° ESE daylight
13 Apr - 15:35:29 10° WSW 15:40:49 36° SSW 15:45:43 10° SE daylight
13 Apr - 17:20:44 10° WSW 17:24:26 18° SSW 17:27:53 10° SSE daylight
14 Apr - 11:10:43 10° SSW 11:14:54 19° SSE 11:19:01 10° ESE daylight
14 Apr - 12:53:07 10° SW 12:58:41 36° SSE 13:04:01 10° ESE daylight
14 Apr - 14:37:08 10° WSW 14:42:45 40° S 14:47:57 10° ESE daylight
14 Apr - 16:21:56 10° WSW 16:26:34 25° SSW 16:30:50 10° SSE daylight
15 Apr - 10:14:01 10° S 10:16:57 14° SE 10:19:52 10° ESE daylight
15 Apr - 11:55:11 10° SW 12:00:33 31° SSE 12:05:48 10° ESE daylight
15 Apr - 13:38:50 10° WSW 13:44:35 42° S 13:50:00 10° ESE daylight
15 Apr - 15:23:20 10° WSW 15:28:33 31° SSW 15:33:23 10° SE daylight
15 Apr - 17:09:28 10° WSW 17:11:58 13° SW 17:14:22 10° S daylight
16 Apr - 10:57:28 10° SSW 11:02:26 26° SSE 11:07:22 10° ESE daylight
16 Apr - 12:40:36 10° WSW 12:46:22 40° S 12:51:55 10° ESE daylight
16 Apr - 14:24:51 10° WSW 14:30:26 37° SSW 14:35:39 10° SE daylight
16 Apr - 16:10:03 10° WSW 16:14:05 19° SSW 16:17:53 10° SSE daylight
17 Apr - 10:00:04 10° SSW 10:04:20 20° SSE 10:08:39 10° ESE daylight
17 Apr - 11:42:28 10° SW 11:48:07 37° SSE 11:53:41 10° ESE daylight
17 Apr - 13:26:27 10° WSW 13:32:12 41° S 13:37:43 10° ESE daylight
17 Apr - 15:11:11 10° WSW 15:16:05 26° SSW 15:20:40 10° SSE daylight
18 Apr - 09:03:17 10° S 09:06:18 14° SE 09:09:23 10° ESE daylight
18 Apr - 10:44:30 10° SW 10:49:52 32° SSE 10:55:17 10° ESE daylight
18 Apr - 12:28:05 10° WSW 12:33:55 42° S 12:39:36 10° ESE daylight
18 Apr - 14:12:32 10° WSW 14:17:56 32° SSW 14:23:03 10° SE daylight
18 Apr - 15:58:35 10° WSW 16:01:24 14° SW 16:04:09 10° S daylight
19 Apr - 09:46:44 10° SSW 09:51:39 26° SSE 09:56:41 10° ESE daylight
19 Apr - 11:29:49 10° WSW 11:35:35 41° S 11:41:19 10° ESE daylight
19 Apr - 13:14:00 10° WSW 13:19:40 37° SSW 13:25:09 10° SE daylight
19 Apr - 14:59:09 10° WSW 15:03:23 20° SSW 15:07:27 10° SSE daylight
20 Apr - 08:49:19 10° SSW 08:53:29 20° SSE 08:57:48 10° ESE daylight
20 Apr - 10:31:40 10° SW 10:37:14 38° SSE 10:42:54 10° ESE daylight
20 Apr - 12:15:33 10° WSW 12:21:19 41° S 12:27:02 10° ESE daylight
20 Apr - 14:00:13 10° WSW 14:05:13 26° SSW 14:10:03 10° SSE daylight
21 Apr - 07:52:30 10° S 07:55:24 14° SE 07:58:22 10° ESE daylight
21 Apr - 09:33:41 10° SW 09:38:54 32° SSE 09:44:19 10° ESE daylight
21 Apr - 11:17:11 10° WSW 11:22:56 43° S 11:28:43 10° ESE daylight
21 Apr - 13:01:32 10° WSW 13:06:57 32° SSW 13:12:16 10° SE daylight
21 Apr - 14:47:29 10° WSW 14:50:29 14° SW 14:53:25 10° S daylight
22 Apr - 08:35:54 10° SSW 08:40:36 26° SSE 08:45:34 10° ESE daylight
22 Apr - 10:18:54 10° WSW 10:24:30 41° S 10:30:17 10° ESE daylight
22 Apr - 12:02:58 10° WSW 12:08:35 37° SSW 12:14:12 10° SE daylight
22 Apr - 13:48:01 10° WSW 13:52:20 20° SSW 13:56:33 10° SSE daylight
